Header for Extended Forecast Station List Page

Search by: ID | Name | Date | Parm | Value | Avg | % Avg
Sort by: ID | Name | Date | Parm | Value | Avg | % Avg

Enter search or view all records.

Click on id for station plot
#IDNameDateParmValueAvg% Avg
0HWRI1BIG LOST-AT HOWELL RANCH NEAR CHILLY02-20-2018DISCHARGE (KAF)115102113
1MACI1BIG LOST-MACKAY RESERVOIR NEAR MACKAY02-20-2018INFLOW (KAF)10010496
2HALI1BIG WOOD-AT HAILEY02-20-2018DISCHARGE (KAF)183166110
3MAGI1BIG WOOD-MAGIC DAM02-20-2018INFLOW (KAF)17321281
4BITM8BITTERROOT-NEAR MISSOULA02-20-2018DISCHARGE (KAF)1203960125
5BONM8BLACKFOOT-NEAR BONNER02-20-2018DISCHARGE (KAF)1108638174
6BIGI1BOISE-AT GLENWOOD BRIDGE02-20-2018DISCHARGE (KAF)32935593
7LUCI1BOISE-LUCKY PEAK DAM02-20-2018INFLOW (KAF)892MM
8PARI1BOISE-NEAR PARMA02-20-2018DISCHARGE (KAF)36541987
9HOTI1BRUNEAU-NEAR HOT SPRINGS02-20-2018DISCHARGE (KAF)10516863
10BULO3BULLY CREEK-BULLY CREEK DAM02-20-2018INFLOW (KAF)88104
11BUDW1BUMPING-BUMPING LAKE DAM02-20-2018INFLOW (KAF)11195116
12CHDW1CHELAN-LAKE CHELAN DAM02-20-2018INFLOW (KAF)770718107
13ABOM8CLARK FORK-ABOVE MISSOULA02-20-2018DISCHARGE (KAF)17381162150
14DLGM8CLARK FORK-AT DEER LODGE02-20-2018DISCHARGE (KAF)818299
15SRGM8CLARK FORK-AT ST REGIS02-20-2018DISCHARGE (KAF)37992917130
16BELM8CLARK FORK-BELOW MISSOULA02-20-2018DISCHARGE (KAF)29412146137
17CABI1CLARK FORK-CABINET GORGE DAM02-20-2018INFLOW (KAF)97057879123
18NOXM8CLARK FORK-NOXON RAPIDS DAM02-20-2018INFLOW (KAF)87977509117
19DRMM8CLARK FORK-NR DRUMMOND02-20-2018DISCHARGE (KAF)293MM
20CLUW1CLE ELUM-CLE ELUM LAKE02-20-2018INFLOW (KAF)337319106
21ORFI1CLEARWATER-AT OROFINO02-20-2018DISCHARGE (KAF)49154141119
22SPDI1CLEARWATER-AT SPALDING02-20-2018DISCHARGE (KAF)73086451113
23COEI1COEUR D ALENE-COEUR D ALENE LAKE02-20-2018INFLOW (KAF)31922816113
24CIBW1COLUMBIA-AT INTL BOUNDARY02-20-2018DISCHARGE (KAF)26368MM
25BONO3COLUMBIA-BONNEVILLE DAM02-20-2018INFLOW (KAF)5725456473101
26CHJW1COLUMBIA-CHIEF JOSEPH DAM02-20-2018INFLOW (KAF)2976727850107
27GCDW1COLUMBIA-GRAND COULEE DAM02-20-2018INFLOW (KAF)3143930835102
28JDAO3COLUMBIA-JOHN DAY DAM02-20-2018INFLOW (KAF)556915674598
29MCDW1COLUMBIA-MCNARY DAM02-20-2018INFLOW (KAF)535715416999
30PRWW1COLUMBIA-PRIEST RAPIDS DAM02-20-2018INFLOW (KAF)3357132971102
31RRHW1COLUMBIA-ROCKY REACH DAM02-20-2018INFLOW (KAF)3240130207107
32TDAO3COLUMBIA-THE DALLES DAM02-20-2018INFLOW (KAF)5613054215104
33WANW1COLUMBIA-WANAPUM DAM02-20-2018INFLOW (KAF)3357532392104
34WELW1COLUMBIA-WELLS DAM02-20-2018INFLOW (KAF)3187329772107
35DEDI1DEADWOOD-NEAR LOWMAN02-20-2018INFLOW (KAF)10610899
36MODO3DESCHUTES-AT MOODY NR BIGGS02-20-2018DISCHARGE (KAF)1447152795
37ARDW1ENTIAT-NEAR ARDENVOIR02-20-2018DISCHARGE (KAF)167143117
38CHEI1FALL RIVER-NEAR CHESTER02-20-2018DISCHARGE (KAF)341291117
39CFMM8FLATHEAD-AT COLUMBIA FALLS02-20-2018DISCHARGE (KAF)43803264134
40KERM8FLATHEAD-KERR DAM02-20-2018INFLOW (KAF)52044129126
41TRYO3GRANDE RONDE-TROY02-20-2018DISCHARGE (KAF)1214123598
42REXI1HENRYS FORK-AT REXBURG02-20-2018DISCHARGE (KAF)790704112
43ANTI1HENRYS FORK-AT ST. ANTHONY02-20-2018DISCHARGE (KAF)690602115
44IPDI1HENRYS FORK-ISLAND PARK DAM02-20-2018INFLOW (KAF)209179117
45HODO3HOOD-NEAR TUCKER BRIDGE02-20-2018DISCHARGE (KAF)26427098
46SERO3JOHN DAY-AT SERVICE CK02-20-2018DISCHARGE (KAF)62489969
47KADW1KACHESS-KACHESS DAM02-20-2018INFLOW (KAF)102100102
48LAUW1KETTLE-AT LAURIER02-20-2018DISCHARGE (KAF)14681463100
49PITW1KLICKITAT-NEAR PITT02-20-2018DISCHARGE (KAF)52052998
50BFEI1KOOTENAI-AT BONNERS FERRY02-20-2018STAGE (FT)MMM
51LEOI1KOOTENAI-AT LEONIA02-20-2018DISCHARGE (KAF)43403819114
52LYDM8KOOTENAI-LIBBY DAM02-20-2018INFLOW (KAF)38603756103
53LWRI1LITTLE WOOD-LITTLE WOOD DAM02-20-2018INFLOW (KAF)466867
54BERO3MALHEUR-AGENCY VALLEY DAM02-20-2018INFLOW (KAF)335263
55VALO3MALHEUR-NEAR VALE02-20-2018DISCHARGE (KAF)376161
56WRMO3MALHEUR-WARM SPRINGS DAM02-20-2018INFLOW (KAF)467066
57MYKO3MCKAY CREEK-NEAR PILOT ROCK02-20-2018DISCHARGE (KAF)5035141
58PATW1METHOW-NEAR PATEROS02-20-2018DISCHARGE (KAF)807651124
59WGCM8MF FLATHEAD-NEAR WEST GLACIER02-20-2018DISCHARGE (KAF)14711156127
60CLFW1NACHES-NEAR CLIFFDEL02-20-2018DISCHARGE (KAF)371321115
61NACW1NACHES-NEAR NACHES02-20-2018DISCHARGE (KAF)576411140
62DWRI1NF CLEARWATER-DWORSHAK DAM02-20-2018INFLOW (KAF)31052572121
63FCFM8NF FLATHEAD-NEAR COLUMBIA FALLS02-20-2018DISCHARGE (KAF)14231184120
64MONO3NF JOHN DAY-AT MONUMENT02-20-2018DISCHARGE (KAF)46662575
65CSDI1NF PAYETTE-CASCADE DAM02-20-2018INFLOW (KAF)42245593
66TONW1OKANOGAN-NEAR TONASKET02-20-2018DISCHARGE (KAF)13191167113
67OWYO3OWYHEE-OWYHEE DAM02-20-2018INFLOW (KAF)20336056
68EMMI1PAYETTE-NEAR EMMETT02-20-2018DISCHARGE (KAF)1031112392
69ALFW1PEND OREILLE-ALBENI FALLS DAM02-20-2018INFLOW (KAF)111359496117
70HOPI1PEND OREILLE-PEND OREILLE LAKE NR HOPE02-20-2018LAKE ELEVATION (FT)MMM
71PIHI1PORTNEUF-AT POCATELLO02-20-2018DISCHARGE (KAF)7610076
72PRTI1PRIEST-NEAR PRIEST RIVER02-20-2018DISCHARGE (KAF)782716109
73RCCM8ROCK CREEK-NEAR CLINTON02-20-2018DISCHARGE (KAF)277193143
74WHBI1SALMON-AT WHITEBIRD02-20-2018DISCHARGE (KAF)48334483108
75ARAI1SF BOISE-ANDERSON RANCH DAM02-20-2018INFLOW (KAF)37744585
76HHWM8SF FLATHEAD-HUNGRY HORSE DAM02-20-2018INFLOW (KAF)20261543131
77PLDI1SF SNAKE-PALISADES DAM02-20-2018INFLOW (KAF)25502000128
78SIFI1SNAKE-AB EAGLE ROCK NR IDAHO FALLS02-20-2018DISCHARGE (KAF)30431947156
79AFRI1SNAKE-AMERICAN FALLS RESERVOIR02-20-2018INFLOW (KAF)31862311138
80SNAI1SNAKE-AT BLACKFOOT02-20-2018DISCHARGE (KAF)26211666157
81MILI1SNAKE-AT MILNER02-20-2018DISCHARGE (KAF)1043634164
82WEII1SNAKE-AT WEISER02-20-2018DISCHARGE (KAF)4891534991
83SWAI1SNAKE-BELOW SWAN FALLS02-20-2018DISCHARGE (KAF)28462671107
84BRNI1SNAKE-BROWNLEE DAM02-20-2018INFLOW (KAF)5331578792
85IHDW1SNAKE-ICE HARBOR DAM02-20-2018INFLOW (KAF)188061907999
86JLKW4SNAKE-JACKSON LAKE AT DAM02-20-2018INFLOW (KAF)740543136
87LGSW1SNAKE-LITTLE GOOSE DAM02-20-2018INFLOW (KAF)183961899597
88LGDW1SNAKE-LOWER GRANITE DAM02-20-2018INFLOW (KAF)183961896297
89LMNW1SNAKE-LOWER MONUMENTAL DAM02-20-2018INFLOW (KAF)188061920298
90ALPW4SNAKE-NEAR ALPINE02-20-2018DISCHARGE (KAF)17781302137
91ANAW1SNAKE-NEAR ANATONE02-20-2018DISCHARGE (KAF)110891251089
92BFTI1SNAKE-NEAR BLACKFOOT02-20-2018DISCHARGE (KAF)26021642158
93HEII1SNAKE-NEAR HEISE02-20-2018DISCHARGE (KAF)29881941154
94JKSW4SNAKE-NEAR JACKSON02-20-2018DISCHARGE (KAF)1410989143
95SHYI1SNAKE-NEAR SHELLEY02-20-2018DISCHARGE (KAF)29211927152
96LLKW1SPOKANE-AT LONGLAKE02-20-2018INFLOW (KAF)34823388103
97SPOW1SPOKANE-AT SPOKANE02-20-2018DISCHARGE (KAF)3152MM
98SJMI1ST JOE-AT ST MARIES02-20-2018STAGE (FT)MMM
99SATI1ST MARIES-NEAR SANTA02-20-2018DISCHARGE (KAF)168150112
100STRM8ST. REGIS-NEAR ST. REGIS02-20-2018DISCHARGE (KAF)297237125
101TNAW1TEANAWAY-BELOW FORKS02-20-2018DISCHARGE (KAF)164132124
102TEAI1TETON-NEAR ST. ANTHONY02-20-2018DISCHARGE (KAF)292256114
103RILW1TIETON-RIMROCK LAKE NEAR RIMROCK02-20-2018INFLOW (KAF)176157112
104PDTO3UMATILLA-AT PENDLETON02-20-2018DISCHARGE (KAF)217185118
105GIBO3UMATILLA-NEAR GIBBON02-20-2018DISCHARGE (KAF)9683116
106UMAO3UMATILLA-NEAR UMATILLA02-20-2018DISCHARGE (KAF)198144137
107TCHW1WALLA WALLA-NEAR TOUCHET02-20-2018DISCHARGE (KAF)241187129
108WSRI1WEISER-NEAR WEISER02-20-2018DISCHARGE (KAF)35043680
109PESW1WENATCHEE-AT PESHASTIN02-20-2018DISCHARGE (KAF)11841097108
110UNDW1WHITE SALMON-NEAR UNDERWOOD02-20-2018DISCHARGE (KAF)34835598
111RIDI1WILLOW CREEK-RIRIE DAM02-20-2018INFLOW (KAF)304370
112EASW1YAKIMA-AT EASTON02-20-2018DISCHARGE (KAF)11699117
113KIOW1YAKIMA-AT KIONA02-20-2018DISCHARGE (KAF)10271016101
114UMTW1YAKIMA-AT UMTANUM02-20-2018DISCHARGE (KAF)709634112
115KEDW1YAKIMA-KEECHELUS LAKE02-20-2018INFLOW (KAF)118106112
116PARW1YAKIMA-NEAR PARKER02-20-2018DISCHARGE (KAF)777636122